Content
SEND FEEDBACK

Daily
Averages
Monthly
Summary
United States of America

PERRINE, FLORIDA


Home > North America > United States > Florida
Elevation: 1 foot     Latitude: 25 36N     Longitude: 080 21W

WEATHER
 
SELECT A DAY
Number of Records: 197,471;   Date Range: 1/1/95 - 11/25/14
 
SHARE

PRINT THIS DATA

[ ← Previous Day ]
WEATHER ALMANAC - JULY 22, 2014
[ Next Day → ]
[ °C ]   °F
Weather ElementAverageHighLow
Temperature82.5 °F90 °F (4:53 pm)77 °F (1:53 am)
Dewpoint74 °F75.9 °F (7:53 am)71.1 °F (6:53 pm)
Humidity76.4 %90 % (1:53 am)54 % (6:53 pm)
Barometer30.05 in30.09 in (11:53 am)29.99 in (4:53 am)
Wind Speed3.9 mph10.4 mph (11:16 am)
Wind Gust19.6 mph (11:16 am)
Weather ElementAverage
Visibility9.5 mi
Wind DirectionSE (134 °)

Weather ElementTotal
Precipitation0.18 in
Cooling Degree Days18.5 (Base 65)
Growing Degree Days33.5 (Base 50)
Averaged from 25 records on July 22, 2014
WEATHER CONDITIONS BREAKOUT
WIND DIRECTION BREAKOUT
WEATHER BY HOUR - JULY 22, 2014
[ °C ]   °F
Local TimeTemperatureDewpointHumidityBarometerVisibilityWind DirectionWind SpeedGust SpeedPrecipitationEventsConditions
1:53 AM77.0 °F73.9 °F90 %30.03 in10.0 miCalmClear
2:53 AM77.0 °F73.9 °F90 %30.01 in10.0 miCalmClear
3:53 AM77.0 °F73.9 °F90 %30.00 in10.0 miCalmScattered Clouds
4:53 AM78.1 °F75.0 °F90 %29.99 in10.0 miSSE (150°)3.5 mphScattered Clouds
5:53 AM77.0 °F73.9 °F90 %30.01 in10.0 miWest (280°)3.5 mphScattered Clouds
6:53 AM77.0 °F73.9 °F90 %30.03 in10.0 miCalm0.00 inRainLight Rain
7:53 AM79.0 °F75.9 °F90 %30.04 in10.0 miNNE (30°)3.5 mph0.01 inClear
8:53 AM82.9 °F75.9 °F79 %30.05 in10.0 miESE (120°)4.6 mphMostly Cloudy
9:53 AM84.2 °F75.2 °F74 %30.06 in10.0 miEast (90°)3.5 mphClear
10:53 AM86.0 °F75.0 °F70 %30.08 in10.0 miSouth (170°)4.6 mphThunderstormPartly Cloudy
11:00 AM86.0 °F75.9 °F72 %30.08 in10.0 miSSE (150°)5.8 mphThunderstormThunderstorm
11:16 AM80.1 °F72.0 °F76 %30.08 in10.0 miSouth (190°)10.4 mph19.6 mphThunderstormThunderstorm
11:25 AM79.0 °F73.0 °F82 %30.08 in4.0 miSouth (190°)10.4 mph0.03 inRain-ThunderstormThunderstorms and Rain
11:35 AM79.0 °F73.0 °F82 %30.08 in3.0 miSouth (190°)5.8 mph0.07 inRainRain
11:53 AM80.1 °F75.0 °F85 %30.09 in10.0 miSouth (180°)5.8 mph0.07 inOvercast
1:53 PM84.0 °F75.0 °F74 %30.06 in10.0 miCalmClear
3:53 PM89.1 °F75.9 °F65 %30.03 in10.0 miNW (320°)8.1 mphClear
4:53 PM90.0 °F73.9 °F59 %30.03 in10.0 miVariable5.8 mphClear
5:53 PM90.0 °F72.0 °F55 %30.04 in10.0 miWest (280°)3.5 mphScattered Clouds
6:53 PM90.0 °F71.1 °F54 %30.03 in10.0 miWest (280°)3.5 mphClear
7:53 PM86.0 °F72.0 °F63 %30.04 in10.0 miCalmClear
8:53 PM84.2 °F73.4 °F70 %30.05 in10.0 miSSW (200°)3.5 mphClear
9:53 PM84.2 °F73.4 °F70 %30.06 in10.0 miSouth (180°)4.6 mphClear
10:53 PM82.9 °F73.9 °F74 %30.08 in10.0 miSSE (160°)3.5 mphClear
11:53 PM82.9 °F75.0 °F77 %30.09 in10.0 miSouth (190°)3.5 mphClear
Hourly data recorded from KTMB, located miles away from Perrine, Florida







STORIES FROM OUR PARTNERS